EW9744 Weather Reports


Display with metric or nautical units.
time (UTC)temp
F
wind
direction
speed
MPH
gust
MPH
rain 1hr
in
rain 24hr
in
rain mn
in
humidity
%
barometer
mb
20210925044531 60 316 5.0 0.0 0.00 0.00 0.00 49 1016.5
20210925043026 61 316 5.0 0.0 0.00 0.00 0.00 48 1016.5
20210925041527 61 315 5.0 0.0 0.00 0.00 0.00 49 1016.9
20210925040039 61 320 5.0 0.0 0.00 0.00 0.00 48 1016.5
20210925034528 61 317 5.0 0.0 0.00 0.00 0.00 46 1016.5
20210925033034 61 305 5.0 0.0 0.00 0.00 0.00 46 1016.5
20210925031529 62 302 5.0 0.0 0.00 0.00 0.00 46 1016.5
20210925030029 62 294 5.0 0.0 0.00 0.00 0.00 45 1016.5
20210925024528 63 293 4.0 0.0 0.00 0.00 0.00 45 1016.5
20210925023030 63 299 3.0 0.0 0.00 0.00 0.00 46 1016.5
20210925021539 63 295 4.0 0.0 0.00 0.00 0.00 47 1016.5
20210925020036 64 295 4.0 0.0 0.00 0.00 0.00 48 1016.9
20210925014525 65 302 4.0 0.0 0.00 0.00 0.00 47 1016.9
20210925013027 66 323 4.0 0.0 0.00 0.00 0.00 46 1016.5
20210925011527 67 333 3.0 0.0 0.00 0.00 0.00 46 1016.9
20210925010031 69 325 4.0 0.0 0.00 0.00 0.00 45 1016.9
20210925004529 71 329 3.0 0.0 0.00 0.00 0.00 42 1017.3
20210925003039 74 17 3.0 0.0 0.00 0.00 0.00 38 1017.3
20210925001536 76 41 3.0 0.0 0.00 0.00 0.00 35 1017.6
20210925000041 77 48 3.0 0.0 0.00 0.00 0.00 35 1018.0
20210924234532 77 71 2.0 0.0 0.00 0.00 0.00 36 1018.0
20210924233030 77 54 3.0 0.0 0.00 0.00 0.00 36 1018.3
20210924231535 77 60 4.0 0.0 0.00 0.00 0.00 36 1018.7
20210924230031 77 43 5.0 0.0 0.00 0.00 0.00 37 1018.7
20210924224527 77 64 4.0 0.0 0.00 0.00 0.00 37 1018.7
20210924223027 77 46 4.0 0.0 0.00 0.00 0.00 38 1018.7
20210924221537 76 58 4.0 0.0 0.00 0.00 0.00 38 1019.0
20210924220028 76 56 5.0 0.0 0.00 0.00 0.00 39 1019.4
20210924214527 76 59 5.0 0.0 0.00 0.00 0.00 40 1019.8
20210924213036 75 56 6.0 0.0 0.00 0.00 0.00 41 1020.1
20210924211538 74 63 6.0 0.0 0.00 0.00 0.00 42 1020.1
20210924210037 73 66 7.0 0.0 0.00 0.00 0.00 43 1020.5
20210924204524 73 64 6.0 0.0 0.00 0.00 0.00 44 1020.8
20210924203028 72 64 6.0 0.0 0.00 0.00 0.00 45 1020.8
20210924201532 72 42 6.0 0.0 0.00 0.00 0.00 46 1021.2
20210924200038 71 61 6.0 0.0 0.00 0.00 0.00 47 1021.5
20210924194530 71 49 6.0 0.0 0.00 0.00 0.00 49 1021.9
20210924193030 70 61 6.0 0.0 0.00 0.00 0.00 52 1021.9
20210924191535 69 42 5.0 0.0 0.00 0.00 0.00 54 1022.2
20210924190024 68 39 5.0 0.0 0.00 0.00 0.00 55 1022.6
20210924184528 67 35 5.0 0.0 0.00 0.00 0.00 55 1023.0
20210924183027 67 29 4.0 0.0 0.00 0.00 0.00 57 1023.0
20210924181526 67 33 4.0 0.0 0.00 0.00 0.00 58 1023.0
20210924180028 65 41 2.0 0.0 0.00 0.00 0.00 59 1023.3
20210924174528 64 35 3.0 0.0 0.00 0.00 0.00 60 1023.7
20210924173030 63 6 3.0 0.0 0.00 0.00 0.00 61 1023.7
20210924171528 63 26 3.0 0.0 0.00 0.00 0.00 62 1023.7
20210924170032 62 22 3.0 0.0 0.00 0.00 0.00 63 1023.7
20210924164528 61 29 4.0 0.0 0.00 0.00 0.00 64 1023.7
20210924163026 61 17 3.0 0.0 0.00 0.00 0.00 65 1023.7
20210924161528 60 21 3.0 0.0 0.00 0.00 0.00 67 1024.0
20210924160037 59 360 4.0 0.0 0.00 0.00 0.00 67 1024.0
20210924154530 58 9 4.0 0.0 0.00 0.00 0.00 67 1024.0
20210924153029 58 4 5.0 0.0 0.00 0.00 0.00 67 1024.0
20210924151540 57 357 5.0 0.0 0.00 0.00 0.00 68 1024.0
20210924150034 57 347 6.0 0.0 0.00 0.00 0.00 70 1024.0
20210924144529 53 318 4.0 0.0 0.00 0.00 0.00 78 1024.0
20210924141529 53 328 4.0 0.0 0.00 0.00 0.00 79 1024.0
20210924140034 52 333 4.0 0.0 0.00 0.00 0.00 81 1024.0
20210924134525 53 326 4.0 0.0 0.00 0.00 0.00 81 1023.7
20210924133031 53 319 4.0 0.0 0.00 0.00 0.00 81 1023.7
20210924131529 53 300 3.0 0.0 0.00 0.00 0.00 81 1023.7
20210924130029 53 295 3.0 0.0 0.00 0.00 0.00 82 1023.7
20210924124539 52 300 4.0 0.0 0.00 0.00 0.00 82 1023.7
20210924123033 52 292 4.0 0.0 0.00 0.00 0.00 82 1023.7
20210924121538 53 304 4.0 0.0 0.00 0.00 0.00 82 1023.7
20210924120026 53 303 4.0 0.0 0.00 0.00 0.00 83 1023.7
20210924114529 53 313 4.0 0.0 0.00 0.00 0.00 84 1023.7
20210924113027 53 315 4.0 0.0 0.00 0.00 0.00 86 1024.0
20210924111531 53 317 4.0 0.0 0.00 0.00 0.00 87 1024.0
20210924110034 53 315 4.0 0.0 0.00 0.00 0.00 86 1024.0
20210924104529 54 308 3.0 0.0 0.00 0.00 0.00 86 1024.0
20210924103030 54 314 3.0 0.0 0.00 0.00 0.00 87 1024.0
20210924101527 53 308 4.0 0.0 0.00 0.00 0.00 85 1024.0
20210924100031 53 307 3.0 0.0 0.00 0.00 0.00 85 1024.0
20210924094529 53 295 3.0 0.0 0.00 0.00 0.00 85 1023.7
20210924093027 53 292 2.0 0.0 0.00 0.00 0.00 85 1023.7
20210924083025 54 293 4.0 0.0 0.00 0.00 0.00 84 1024.0
20210924081529 55 292 2.0 0.0 0.00 0.00 0.00 83 1024.4
20210924080027 55 281 4.0 0.0 0.00 0.00 0.00 83 1024.4
20210924074528 55 303 4.0 0.0 0.00 0.00 0.00 83 1024.4
20210924073035 55 292 1.0 0.0 0.00 0.00 0.00 80 1024.4
20210924071538 56 273 3.0 0.0 0.00 0.00 0.00 77 1024.0
20210924070031 56 285 4.0 0.0 0.00 0.00 0.00 78 1024.4
20210924064530 56 292 3.0 0.0 0.00 0.00 0.00 76 1024.0
20210924063041 56 310 2.0 0.0 0.00 0.00 0.00 76 1024.4
20210924061527 56 305 3.0 0.0 0.00 0.00 0.00 75 1024.0
20210924060034 56 275 5.0 0.0 0.00 0.00 0.00 75 1024.4
20210924054543 57 294 3.0 0.0 0.00 0.00 0.00 75 1024.4
20210924053027 57 320 3.0 0.0 0.00 0.00 0.00 74 1024.4
20210924051535 58 292 3.0 0.0 0.00 0.00 0.00 72 1024.0
20210924050025 58 292 3.0 0.0 0.00 0.00 0.00 71 1024.0